User: anonymous   Login
Location: Unspecified
(0.0000°N, 0.0000°E)
Time: 19:31:26
(UTC+00:00)
Language:

STARLINK-30968 - Orbit

View from above orbital plane
View from above orbital plane
View from above satellite
View from above satellite

Ground track
Ground track

The orbit is defined by the following mean orbital elements,

1 58511U          26144.96938137 +.00000000 +00000-0 +11953-3 0 00008
2 58511  43.0018  32.9633 0001211 274.9456  85.1257 15.27598751    04
Epoch (UTC): 24 May 2026 23:15:54
Eccentricity: 0.0001211
inclination: 43.0018°
perigee height: 482 km
apogee height: 484 km
right ascension of ascending node: 32.9633°
argument of perigee: 274.9456°
revolutions per day: 15.27598751
mean anomaly at epoch: 85.1257°

The dashed part of the orbit path shows where the satellite is in the earth's shadow,  

DLR